NOAA 16 DEB, 41156

Orbit data source: Space-Track

NOAA 16 DEB, 41156 is space debris in SSO originally from a launch on Thu, 21 Sep 2000 UTC launched from the Air Force Western Test Range (AFWTR). Debris objects in space refer to the collection of defunct objects orbiting the Earth. Examples of debris include non-operational satellites, rocket bodies, and fragments generated from explosions, collisions, or faulty payload assembly.

Loading next visibility...
Identifier
41156, 2000-055CP
Orbit
SSO
Country
Flag of USUS
Related business
Manufacturer
Unknown
Mission
Spacecraft
Bus & Motor
Unknown
Mass
Unknown
Launch date (UTC)
2000-09-21 (26 years ago)
Launch vehicle
Unknown
Launch site
Air Force Western Test Range (AFWTR)
Object type
Payload
Rocket body
Debris
Shape & HBR
Unknown shape, 0.1 m
Radar Cross Section
Medium (>0.1 m² and <1 m²)

Expand to show TLE details & history
Last TLE update: 4 days ago

TLE from 4 days ago
0 NOAA 16 DEB
1 41156U 00055CP  26251.24480764  .00035286  00000-0  37539-2 0  9991
2 41156  98.9317 170.0025 0025607  44.6368 315.6901 14.88609981565119
Epoch: 2026-09-08T05:52Z
TLE epoch observation values (Epoch: 2026-09-08T05:52:31.380Z)
Latitude
-0.00002°
Longitude
94.55776°
Altitude
592.507 km
Speed
7.571 km/s
True Right ascension
11h 20m 00s
True Declination
0° 00' 00"
Sunlit
Object was in daylight at epoch
Visualization orbit readout
Latitude
Unknown
Longitude
Unknown
Altitude
Unknown
Speed
Unknown
Apparent Right ascension
Unknown
Apparent Declination
Unknown
Sunlit
N/A
Visualization observer readout
Local Sidereal Time
15:30:03
Azimuth
Unknown
Elevation
Unknown
Doppler factor
Unknown
Orbital elements
Apogee altitude
617.224 km
Perigee altitude
581.489 km
Semi-major axis
6,977.493 km
Eccentricity
0.00256
Inclination
98.9317°
RAAN
170.0025°
Arg. of periapsis
44.6368°
True anomaly
315.48465°
Mean anomaly
315.6901°
Eccentric anomaly
315.58742°
Mean motion
3.72387 °/min
Orbital period
96.67 mins
BSTAR
0.0037539
Loading maneuver chart data...
Computing Atmospheric mass density...
Loading historical data...
Loading historical data...
Loading historical data...
Loading historical data...
Loading historical data...
Loading historical data...
Loading historical data...

Documentation

Showing up to 5 results
|